x

La Perouse Bank (46206) Wave Buoy

3:00 - Thu 25th Dec 2014 All times are PST. -8 hours from GMT.

  • Sig Wave height 7.5ft
  • Peak Period 10s
  • Wind
    9mph, 11mph gusts
  • Sea Temp 52°f
  • Ar Temp 49°f
  • Sea Pressure 1023.2mb
  • La Perouse Bank
  • La Perouse Bank

More Historic Weather Station data

Upgrade to MSW Pro to gain access to the past 30 days of data for over 8000 Wavebouys and Weather Stations around the globe.

Join Pro

Comparision Forecast

View Surf forecast
   
Qui 12/25 3:00 7.5ft 10s 9 11 mph 1023.2mb 52f 49f
2:00 8ft 11s 11 16 mph 1022.9mb 52f 49f
1:00 8ft 11s 11 16 mph 1022.8mb 52f 49f
12:00 8ft 11s 13 18 mph 1023mb 52f 49f
11:00 10ft 12s 13 16 mph 1022.9mb 52f 49f
10:00 9ft 10s 16 20 mph 1023mb 52f 49f
9:00 9.5ft 11s 18 22 mph 1022.3mb 52f 49f
8:00 10.5ft 10s 18 22 mph 1021.6mb 52f 49f
7:00 10.5ft 11s 20 27 mph 1021.4mb 52f 49f
6:00 12ft 11s 27 31 mph 1020.9mb 52f 49f
5:00 13.5ft 11s 22 29 mph 1020.4mb 52f 48f
4:00 13ft 11s 22 27 mph 1020mb 52f 49f
3:00 13ft 12s 27 34 mph 1020mb 52f 49f
2:00 13ft 12s 25 31 mph 1019.4mb 52f 49f
1:00 13ft 12s 25 31 mph 1019mb 52f 49f
12:00 14ft 12s 27 34 mph 1018.9mb 52f 49f
Qua 12/24 11:00 14.5ft 10s 25 31 mph 1018.5mb 52f 49f
10:00 15ft 12s 27 31 mph 1018.4mb 52f 49f
9:00 14ft 13s 25 31 mph 1018mb 52f 49f
8:00 15.5ft 12s 27 34 mph 1017.5mb 52f 49f
7:00 16ft 10s 29 36 mph 1016.9mb 52f 49f
6:00 17ft 14s 27 31 mph 1016.2mb 53f 50f
5:00 17.5ft 11s 25 31 mph 1015.8mb 53f 50f
4:00 17.5ft 13s 27 34 mph 1015.1mb 53f 49f
3:00 16.5ft 12s 29 36 mph 1014.5mb 53f 49f
2:00 16.5ft 15s 27 31 mph 1014.2mb 53f 49f
1:00 16ft 14s 27 34 mph 1014mb 53f 49f
12:00 17ft 14s 27 36 mph 1013.9mb 53f 49f
11:00 15.5ft 14s 27 31 mph 1014.1mb 53f 48f
10:00 15ft 14s 22 29 mph 1014mb 53f 49f
8:00 14.5ft 14s 20 27 mph 1013.2mb 53f 46f
7:00 15ft 14s 18 22 mph 1013.1mb 53f 47f
6:00 15.5ft 14s 13 20 mph 1013.2mb 53f 48f
5:00 15.5ft 15s 11 18 mph 1013.4mb 53f 48f
4:00 15.5ft 14s 16 27 mph 1014.3mb 53f 46f
3:00 16.5ft 15s 13 22 mph 1014.8mb 53f 45f
2:00 17.5ft 15s 18 27 mph 1014.7mb 53f 49f
12:00 18ft 14s 22 27 mph 1015.4mb 53f 51f
Ter 12/23 11:00 18ft 15s 11 18 mph 1016.6mb 53f 49f
10:00 17.5ft 16s 18 22 mph 1016.7mb 53f 50f
9:00 17.5ft 15s 18 22 mph 1017.2mb 53f 51f
8:00 16.5ft 14s 18 22 mph 1017.7mb 53f 51f
7:00 16ft 15s 9 16 mph 1018.1mb 53f 51f
6:00 12.5ft 15s 18 25 mph 1018.4mb 53f 51f
5:00 9.5ft 16s 16 20 mph 1018.9mb 53f 52f
4:00 8.5ft 13s 13 18 mph 1018.9mb 53f 52f
3:00 8.5ft 17s 13 18 mph 1018.8mb 53f 52f
2:00 8ft 16s 16 20 mph 1019.3mb 53f 52f
1:00 8ft 17s 16 20 mph 1019.4mb 53f 52f
12:00 8.5ft 14s 16 20 mph 1019.9mb 53f 52f
11:00 9ft 7s 16 20 mph 1019.7mb 53f 53f
10:00 9ft 12s 18 22 mph 1019.6mb 53f 53f
9:00 10ft 8s 20 25 mph 1019.2mb 53f 53f
8:00 10ft 7s 16 20 mph 1018.2mb 53f 54f
7:00 11ft 7s 20 27 mph 1017.6mb 53f 51f
6:00 11ft 6s 22 27 mph 1017.1mb 53f 54f
5:00 9.5ft 6s 29 36 mph 1018.2mb 53f 49f
4:00 9ft 6s 29 34 mph 1019.5mb 53f 49f
3:00 9ft 14s 29 38 mph 1020.2mb 53f 48f
2:00 8.5ft 14s 29 36 mph 1020.9mb 53f 49f
1:00 7.5ft 10s 27 34 mph 1021.6mb 53f 51f
12:00 8ft 12s 31 36 mph 1022.5mb 53f 50f
Seg 12/22 11:00 8.5ft 11s 31 36 mph 1023.1mb 53f 50f
10:00 9.5ft 10s 27 34 mph 1024.4mb 52f 50f
9:00 10ft 14s 27 31 mph 1024.6mb 52f 50f
8:00 11ft 13s 22 29 mph 1025.3mb 51f 49f
6:00 11ft 13s 18 22 mph 1026.7mb 52f 49f
5:00 12ft 12s 18 22 mph 1027mb 52f 49f
2:00 12ft 14s 11 18 mph 1027.2mb 52f 48f
1:00 10.5ft 14s 9 13 mph 1027.6mb 52f 48f
12:00 12.5ft 13s 2 4 mph 1027.5mb 52f 50f
11:00 12ft 14s 4 7 mph 1028.2mb 52f 50f
10:00 12ft 11s 4 9 mph 1027.6mb 52f 50f
9:00 13ft 13s 7 9 mph 1027.4mb 52f 50f
8:00 12.5ft 12s 7 9 mph 1026.6mb 52f 50f
7:00 13ft 13s 7 11 mph 1026.3mb 52f 50f
6:00 13ft 13s 9 11 mph 1026mb 52f 50f
5:00 12ft 12s 18 22 mph 1025.1mb 52f 51f
4:00 11ft 14s 7 9 mph 1024.2mb 52f 50f
3:00 12ft 13s 7 9 mph 1024.1mb 52f 49f
2:00 11ft 12s 9 11 mph 1023.1mb 52f 49f
1:00 11ft 12s 16 20 mph 1022mb 52f 49f